Home   Weather   Garmisch-Partenkirchen   Past weeks

Flag for Germany Past Weather in Garmisch-Partenkirchen, Bavaria, Germany — Yesterday and Last 2 Weeks

Now
73 °F

Passing clouds.


Feels Like: 77 °F
Forecast: 49 / 71 °F
Wind: 8 mph from Southeast

Location: Innsbruck-Flughafen

Current Time: Sep 30, 2016 at 3:32:59 PM

Latest Report: Sep 30, 2016 at 2:50 PM


Visibility: N/A

Pressure: 30.01 "Hg (27.68 "Hg at 699m altitude)

Humidity: 47%

Dew Point: 52 °F

Location of Garmisch-PartenkirchenLocation

Past Weather in Garmisch-Partenkirchen — Graph

°F

Garmisch-Partenkirchen Temperature Yesterday

Maximum temperature yesterday: 75 °F (at 4:20 PM)
Minimum temperature yesterday: 46 °F (at 6:50 AM)
Average temperature yesterday: 58 °F

High & Low Weather Summary for the Past Weeks

 TemperatureHumidityPressure
High79 °F (Sep 15, 1:20 PM)100% (Sep 17, 7:20 AM)30.48 "Hg (Sep 17, 7:20 AM)
Low45 °F (Sep 23, 6:20 AM)31% (Sep 26, 4:20 PM)29.86 "Hg (Sep 18, 12:50 PM)
Average58 °F77%30.14 "Hg
* Reported Sep 15 1:20 PM — Sep 30 1:50 PM, Garmisch-Partenkirchen, Weather by CustomWeather, © 2016

Note: Actual official high and low records may vary slightly from our data, if they occured in-between our weather recording intervals... More about our weather records

Advertising

Garmisch-Partenkirchen Weather History for the Previous 24 Hours

Scroll right to see more
 ConditionsComfort  
Time TempWeatherWind HumidityBarometerVisibility
1:50 PM
Fri, Sep 30
70 °FPassing clouds.5 mph50%30.04 "HgN/A
1:20 PM70 °FPassing clouds.2 mph50%30.07 "HgN/A
12:50 PM68 °FPassing clouds.1 mph53%30.07 "HgN/A
12:20 PM64 °FPassing clouds.1 mph56%30.09 "HgN/A
11:50 AM64 °FPassing clouds.1 mph56%30.12 "HgN/A
11:20 AM63 °FPassing clouds.1 mph64%30.12 "HgN/A
10:50 AM59 °FPassing clouds.5 mph72%30.12 "HgN/A
10:20 AM57 °FPassing clouds.3 mph72%30.15 "HgN/A
9:50 AM55 °FPassing clouds.2 mph77%30.15 "HgN/A
9:20 AM52 °FPassing clouds.2 mph88%30.15 "HgN/A
8:50 AM52 °FPassing clouds.2 mph82%30.15 "HgN/A
8:20 AM50 °FSunny.2 mph88%30.15 "Hg10 mi
7:50 AM46 °FSunny.3 mph93%30.15 "Hg10 mi
7:20 AM46 °FSunny.3 mph93%30.15 "Hg10 mi
6:50 AM45 °FClear.2 mph93%30.15 "Hg10 mi
6:20 AM45 °FClear.No wind100%30.15 "Hg10 mi
5:50 AM46 °FClear.2 mph93%30.15 "Hg10 mi
5:20 AM46 °FCool.1 mph93%30.15 "HgN/A
4:50 AM46 °FCool.2 mph93%30.15 "HgN/A
4:20 AM48 °FCool.3 mph94%30.15 "HgN/A
3:50 AM48 °FCool.5 mph94%30.15 "HgN/A
3:20 AM48 °FCool.5 mph87%30.15 "HgN/A
2:50 AM48 °FCool.3 mph94%30.18 "HgN/A
2:20 AM50 °FCool.2 mph88%30.18 "HgN/A
1:50 AM50 °FCool.2 mph88%30.18 "HgN/A
1:20 AM50 °FCool.1 mph88%30.18 "HgN/A
12:50 AM52 °FCool.2 mph88%30.18 "HgN/A
12:20 AM52 °FCool.1 mph88%30.18 "HgN/A
11:50 PM
Thu, Sep 29
52 °FCool.1 mph88%30.18 "HgN/A
11:20 PM54 °FCool.2 mph82%30.18 "HgN/A
10:50 PM54 °FClear.1 mph82%30.18 "Hg10 mi
10:20 PM54 °FClear.No wind82%30.18 "Hg10 mi
9:50 PM55 °FClear.2 mph82%30.18 "Hg10 mi
9:20 PM55 °FClear.1 mph82%30.15 "Hg10 mi
8:50 PM57 °FClear.1 mph77%30.15 "Hg10 mi
8:20 PM59 °FClear.1 mph72%30.15 "Hg10 mi
7:50 PM59 °FClear.2 mph72%30.15 "Hg10 mi
7:20 PM63 °FClear.2 mph64%30.15 "Hg10 mi
6:50 PM66 °FSunny.1 mph56%30.12 "Hg10 mi
6:20 PM70 °FSunny.2 mph46%30.12 "Hg10 mi
5:50 PM72 °FSunny.2 mph47%30.12 "Hg10 mi
5:20 PM73 °FPassing clouds.6 mph41%30.12 "HgN/A
4:50 PM73 °FSunny.2 mph44%30.12 "Hg10 mi
4:20 PM75 °FSunny.2 mph39%30.12 "Hg10 mi
3:50 PM73 °FSunny.2 mph38%30.15 "Hg10 mi
3:20 PM73 °FSunny.1 mph38%30.15 "Hg10 mi
Weather by CustomWeather, © 2016

See weather overviewHow to use our weather pages